Retour au catalogue

STARLINK-37686

ActifCommunicationsVLEO
NORAD 69470·PAYLOAD·🇺🇸 United States

Lancé Jun 8, 2026 depuis Cape Canaveral Space Force Station

Loading…

Prochains Passages (prochaines 24 heures)

TLE

FraisSource: CelesTrak SupGP

Époque: Sep 15, 2026, 03:29 UTC

1 69470C 26127AD  26258.14562500 -.00042709  00000+0 -12621-2 0  2585
2 69470  53.1575 190.7909 0001294  82.7348 122.8964 15.34406758    13

Suivez STARLINK-37686 en temps réel avec AllMySat

Download on the App Store